| time (UTC) | temp C | wind direction | speed KPH | gust KPH | rain 1hr cm | rain 24hr cm | rain mn cm | humidity % | barometer mb |
| 20260502210858 | 22 | 355 | 14.5 | 16.1 | 0.00 | 0.00 | 0.00 | 55 | 1017.7 |
| 20260502210354 | 22 | 25 | 8.0 | 11.3 | 0.00 | 0.00 | 0.00 | 54 | 1017.6 |
| 20260502205852 | 22 | 189 | 1.6 | 8.0 | 0.00 | 0.00 | 0.00 | 55 | 1017.7 |
| 20260502205347 | 22 | 9 | 3.2 | 8.0 | 0.00 | 0.00 | 0.00 | 55 | 1017.6 |
| 20260502204845 | 22 | 167 | 1.6 | 4.8 | 0.00 | 0.00 | 0.00 | 53 | 1017.9 |
| 20260502204342 | 22 | 270 | 6.4 | 8.0 | 0.00 | 0.00 | 0.00 | 54 | 1017.9 |
| 20260502203839 | 22 | 16 | 6.4 | 20.9 | 0.00 | 0.00 | 0.00 | 56 | 1018.0 |
| 20260502203337 | 22 | 197 | 4.8 | 14.5 | 0.00 | 0.00 | 0.00 | 56 | 1017.9 |
| 20260502202833 | 21 | 77 | 8.0 | 16.1 | 0.00 | 0.00 | 0.00 | 56 | 1017.8 |
| 20260502202330 | 21 | 356 | 8.0 | 14.5 | 0.00 | 0.00 | 0.00 | 56 | 1018.1 |
| 20260502201828 | 21 | 327 | 14.5 | 16.1 | 0.00 | 0.00 | 0.00 | 57 | 1018.1 |
| 20260502201324 | 21 | 203 | 1.6 | 12.9 | 0.00 | 0.00 | 0.00 | 57 | 1018.3 |
| 20260502200820 | 21 | 126 | 4.8 | 11.3 | 0.00 | 0.00 | 0.00 | 57 | 1018.4 |
| 20260502200316 | 20 | 251 | 3.2 | 11.3 | 0.00 | 0.00 | 0.00 | 61 | 1018.3 |
| 20260502195815 | 20 | 209 | 3.2 | 11.3 | 0.00 | 0.00 | 0.00 | 60 | 1018.2 |
| 20260502195311 | 21 | 28 | 11.3 | 20.9 | 0.00 | 0.00 | 0.00 | 58 | 1018.4 |
| 20260502194808 | 21 | 22 | 8.0 | 12.9 | 0.00 | 0.00 | 0.00 | 58 | 1018.3 |
| 20260502194304 | 20 | 161 | 1.6 | 4.8 | 0.00 | 0.00 | 0.00 | 61 | 1018.3 |
| 20260502193800 | 20 | 165 | 4.8 | 12.9 | 0.00 | 0.00 | 0.00 | 62 | 1018.4 |
| 20260502193258 | 19 | 210 | 3.2 | 16.1 | 0.00 | 0.00 | 0.00 | 64 | 1018.7 |
| 20260502192757 | 17 | 135 | 4.8 | 9.7 | 0.00 | 0.00 | 0.00 | 69 | 1018.6 |
| 20260502192255 | 17 | 158 | 3.2 | 8.0 | 0.00 | 0.00 | 0.00 | 71 | 1019.0 |
| 20260502191753 | 16 | 185 | 3.2 | 3.2 | 0.00 | 0.00 | 0.00 | 72 | 1018.9 |
| 20260502191250 | 16 | 145 | 1.6 | 9.7 | 0.00 | 0.00 | 0.00 | 73 | 1019.0 |
| 20260502190747 | 16 | 218 | 3.2 | 11.3 | 0.00 | 0.00 | 0.00 | 74 | 1019.2 |
| 20260502190245 | 16 | 205 | 4.8 | 8.0 | 0.00 | 0.00 | 0.00 | 74 | 1019.2 |
| 20260502185744 | 15 | 182 | 8.0 | 8.0 | 0.00 | 0.00 | 0.00 | 74 | 1019.3 |
| 20260502185241 | 15 | 150 | 3.2 | 9.7 | 0.00 | 0.00 | 0.00 | 74 | 1019.3 |
| 20260502184737 | 17 | 218 | 11.3 | 16.1 | 0.00 | 0.00 | 0.00 | 70 | 1019.4 |
| 20260502184233 | 17 | 243 | 14.5 | 17.7 | 0.00 | 0.00 | 0.00 | 67 | 1019.2 |
| 20260502183730 | 17 | 238 | 9.7 | 14.5 | 0.00 | 0.00 | 0.00 | 67 | 1019.3 |
| 20260502183226 | 17 | 268 | 3.2 | 8.0 | 0.00 | 0.00 | 0.00 | 70 | 1019.3 |
| 20260502182721 | 16 | 202 | 6.4 | 11.3 | 0.00 | 0.00 | 0.00 | 74 | 1019.4 |
| 20260502182217 | 15 | 223 | 4.8 | 9.7 | 0.00 | 0.00 | 0.00 | 77 | 1019.2 |
| 20260502181714 | 14 | 139 | 1.6 | 4.8 | 0.00 | 0.00 | 0.00 | 78 | 1019.5 |
| 20260502181214 | 15 | 176 | 1.6 | 9.7 | 0.00 | 0.00 | 0.00 | 75 | 1019.4 |
| 20260502180710 | 16 | 80 | 3.2 | 8.0 | 0.00 | 0.00 | 0.00 | 70 | 1019.4 |
| 20260502180208 | 16 | 143 | 3.2 | 3.2 | 0.00 | 0.00 | 0.00 | 71 | 1019.3 |
| 20260502170126 | 13 | 189 | 3.2 | 4.8 | 0.00 | 0.00 | 0.00 | 81 | 1019.7 |
| 20260502164112 | 12 | 150 | 6.4 | 11.3 | 0.00 | 0.00 | 0.00 | 85 | 1019.9 |
| 20260502163609 | 12 | 202 | 4.8 | 8.0 | 0.00 | 0.00 | 0.00 | 85 | 1019.9 |
| 20260502163105 | 12 | 204 | 1.6 | 3.2 | 0.00 | 0.00 | 0.00 | 86 | 1019.8 |
| 20260502162602 | 11 | 175 | 3.2 | 4.8 | 0.00 | 0.00 | 0.00 | 87 | 1020.1 |
| 20260502162059 | 11 | 175 | 3.2 | 3.2 | 0.00 | 0.00 | 0.00 | 88 | 1019.9 |
| 20260502161556 | 11 | 153 | 4.8 | 4.8 | 0.00 | 0.00 | 0.00 | 88 | 1019.8 |
| 20260502161053 | 11 | 175 | 4.8 | 4.8 | 0.00 | 0.00 | 0.00 | 89 | 1019.9 |
| 20260502160551 | 11 | 148 | 1.6 | 3.2 | 0.00 | 0.00 | 0.00 | 90 | 1020.0 |
| 20260502152004 | 11 | 156 | 0.0 | 0.0 | 0.00 | 0.00 | 0.00 | 91 | 1019.7 |
| 20260502151501 | 11 | 162 | 0.0 | 3.2 | 0.00 | 0.00 | 0.00 | 92 | 1019.7 |
| 20260502150958 | 11 | 160 | 0.0 | 0.0 | 0.00 | 0.00 | 0.00 | 92 | 1019.8 |
| 20260502150455 | 11 | 155 | 0.0 | 1.6 | 0.00 | 0.00 | 0.00 | 92 | 1020.0 |
| 20260502130341 | 10 | 153 | 1.6 | 1.6 | 0.00 | 0.00 | 0.00 | 93 | 1019.8 |
| 20260502123323 | 10 | 154 | 0.0 | 0.0 | 0.00 | 0.00 | 0.00 | 93 | 1019.7 |
| 20260502122820 | 10 | 159 | 3.2 | 3.2 | 0.00 | 0.00 | 0.00 | 93 | 1020.0 |
| 20260502122316 | 10 | 154 | 1.6 | 3.2 | 0.00 | 0.00 | 0.00 | 93 | 1019.9 |
| 20260502121815 | 10 | 162 | 0.0 | 0.0 | 0.00 | 0.00 | 0.00 | 93 | 1019.8 |
| 20260502121312 | 10 | 156 | 0.0 | 0.0 | 0.00 | 0.00 | 0.00 | 93 | 1019.9 |
| 20260502120809 | 10 | 170 | 0.0 | 0.0 | 0.00 | 0.00 | 0.00 | 93 | 1020.1 |
| 20260502120305 | 10 | 156 | 0.0 | 0.0 | 0.00 | 0.00 | 0.00 | 92 | 1019.8 |
| 20260502115803 | 10 | 107 | 1.6 | 3.2 | 0.00 | 0.00 | 0.00 | 92 | 1020.0 |
| 20260502115300 | 10 | 118 | 0.0 | 1.6 | 0.00 | 0.00 | 0.00 | 92 | 1019.9 |
| 20260502114755 | 10 | 144 | 0.0 | 1.6 | 0.00 | 0.00 | 0.00 | 92 | 1019.5 |
| 20260502114253 | 10 | 153 | 0.0 | 0.0 | 0.00 | 0.00 | 0.00 | 91 | 1020.0 |
| 20260502113750 | 10 | 153 | 0.0 | 0.0 | 0.00 | 0.00 | 0.00 | 91 | 1019.9 |
| 20260502113248 | 10 | 144 | 1.6 | 1.6 | 0.00 | 0.00 | 0.00 | 91 | 1019.6 |
| 20260502112746 | 10 | 173 | 1.6 | 1.6 | 0.00 | 0.00 | 0.00 | 91 | 1020.0 |
| 20260502112243 | 10 | 158 | 0.0 | 0.0 | 0.00 | 0.00 | 0.00 | 91 | 1019.8 |
| 20260502111740 | 10 | 167 | 0.0 | 1.6 | 0.00 | 0.00 | 0.00 | 91 | 1020.0 |
| 20260502111237 | 10 | 142 | 0.0 | 1.6 | 0.00 | 0.00 | 0.00 | 91 | 1020.3 |
| 20260502110735 | 10 | 183 | 3.2 | 8.0 | 0.00 | 0.00 | 0.00 | 91 | 1020.1 |
| 20260502110232 | 10 | 177 | 1.6 | 3.2 | 0.00 | 0.00 | 0.00 | 91 | 1020.1 |
| 20260502105730 | 10 | 178 | 3.2 | 4.8 | 0.00 | 0.00 | 0.00 | 92 | 1020.6 |
| 20260502105226 | 10 | 142 | 8.0 | 11.3 | 0.00 | 0.00 | 0.00 | 93 | 1020.6 |
| 20260502104724 | 10 | 168 | 3.2 | 9.7 | 0.00 | 0.00 | 0.00 | 94 | 1020.5 |
| 20260502104221 | 10 | 153 | 1.6 | 3.2 | 0.00 | 0.00 | 0.00 | 94 | 1020.4 |
| 20260502103719 | 10 | 157 | 0.0 | 0.0 | 0.00 | 0.00 | 0.00 | 94 | 1020.3 |
| 20260502103217 | 10 | 156 | 0.0 | 0.0 | 0.00 | 0.00 | 0.00 | 93 | 1020.4 |
| 20260502102713 | 10 | 150 | 0.0 | 0.0 | 0.00 | 0.00 | 0.00 | 93 | 1019.8 |
| 20260502102210 | 10 | 160 | 0.0 | 1.6 | 0.00 | 0.00 | 0.00 | 93 | 1019.5 |
| 20260502101708 | 10 | 150 | 0.0 | 1.6 | 0.00 | 0.00 | 0.00 | 93 | 1019.6 |
| 20260502101206 | 10 | 149 | 0.0 | 0.0 | 0.00 | 0.00 | 0.00 | 92 | 1019.7 |
| 20260502100704 | 10 | 149 | 0.0 | 0.0 | 0.00 | 0.00 | 0.00 | 92 | 1019.4 |
| 20260502100202 | 10 | 153 | 1.6 | 1.6 | 0.00 | 0.00 | 0.00 | 92 | 1019.6 |
| 20260502091136 | 11 | 163 | 1.6 | 3.2 | 0.00 | 0.00 | 0.00 | 89 | 1019.4 |
| 20260502090633 | 11 | 157 | 0.0 | 0.0 | 0.00 | 0.00 | 0.00 | 89 | 1019.6 |
| 20260502090130 | 11 | 157 | 1.6 | 1.6 | 0.00 | 0.00 | 0.00 | 89 | 1019.6 |
| 20260502071522 | 12 | 160 | 1.6 | 1.6 | 0.00 | 0.00 | 0.00 | 82 | 1019.5 |
| 20260502071020 | 12 | 159 | 1.6 | 1.6 | 0.00 | 0.00 | 0.00 | 81 | 1019.3 |
| 20260502070517 | 12 | 154 | 0.0 | 0.0 | 0.00 | 0.00 | 0.00 | 80 | 1019.6 |
| 20260502070015 | 12 | 157 | 0.0 | 0.0 | 0.00 | 0.00 | 0.00 | 79 | 1019.3 |
| 20260502065514 | 13 | 157 | 0.0 | 0.0 | 0.00 | 0.00 | 0.00 | 78 | 1019.2 |
| 20260502065011 | 13 | 163 | 0.0 | 0.0 | 0.00 | 0.00 | 0.00 | 77 | 1019.2 |
| 20260502064509 | 13 | 163 | 0.0 | 1.6 | 0.00 | 0.00 | 0.00 | 76 | 1019.3 |
| 20260502064006 | 13 | 153 | 0.0 | 0.0 | 0.00 | 0.00 | 0.00 | 76 | 1019.2 |
| 20260502063504 | 13 | 147 | 1.6 | 1.6 | 0.00 | 0.00 | 0.00 | 74 | 1019.3 |
| 20260502063001 | 13 | 155 | 1.6 | 3.2 | 0.00 | 0.00 | 0.00 | 75 | 1019.2 |
| 20260502062458 | 13 | 141 | 0.0 | 1.6 | 0.00 | 0.00 | 0.00 | 74 | 1019.0 |
| 20260502061957 | 13 | 106 | 3.2 | 3.2 | 0.00 | 0.00 | 0.00 | 75 | 1018.9 |
| 20260502061454 | 13 | 131 | 0.0 | 3.2 | 0.00 | 0.00 | 0.00 | 74 | 1019.1 |
| 20260502060950 | 13 | 147 | 0.0 | 1.6 | 0.00 | 0.00 | 0.00 | 77 | 1019.3 |
| 20260502060446 | 13 | 173 | 1.6 | 1.6 | 0.00 | 0.00 | 0.00 | 77 | 1019.1 |
| 20260502055942 | 13 | 123 | 1.6 | 3.2 | 0.00 | 0.00 | 0.00 | 77 | 1019.0 |
| 20260502055441 | 13 | 157 | 0.0 | 0.0 | 0.00 | 0.00 | 0.00 | 76 | 1019.0 |
| 20260502054940 | 13 | 147 | 0.0 | 0.0 | 0.00 | 0.00 | 0.00 | 76 | 1019.0 |
| 20260502054438 | 13 | 160 | 0.0 | 0.0 | 0.00 | 0.00 | 0.00 | 75 | 1018.7 |
| 20260502053935 | 14 | 160 | 0.0 | 1.6 | 0.00 | 0.00 | 0.00 | 74 | 1018.9 |
| 20260502053432 | 14 | 190 | 1.6 | 1.6 | 0.00 | 0.00 | 0.00 | 73 | 1019.1 |
| 20260502052930 | 15 | 169 | 3.2 | 3.2 | 0.00 | 0.00 | 0.00 | 73 | 1018.7 |
| 20260502052428 | 15 | 163 | 0.0 | 4.8 | 0.00 | 0.00 | 0.00 | 72 | 1018.6 |
| 20260502051926 | 15 | 178 | 0.0 | 8.0 | 0.00 | 0.00 | 0.00 | 72 | 1018.7 |
| 20260502051424 | 15 | 175 | 1.6 | 1.6 | 0.00 | 0.00 | 0.00 | 72 | 1018.6 |
| 20260502050920 | 15 | 181 | 1.6 | 1.6 | 0.00 | 0.00 | 0.00 | 71 | 1018.6 |
| 20260502050416 | 15 | 214 | 3.2 | 3.2 | 0.00 | 0.00 | 0.00 | 70 | 1018.5 |
| 20260502045914 | 16 | 198 | 3.2 | 3.2 | 0.00 | 0.00 | 0.00 | 68 | 1018.6 |
| 20260502045411 | 16 | 165 | 0.0 | 1.6 | 0.00 | 0.00 | 0.00 | 66 | 1018.6 |
| 20260502044908 | 16 | 140 | 1.6 | 3.2 | 0.00 | 0.00 | 0.00 | 64 | 1018.3 |
| 20260502044403 | 16 | 148 | 0.0 | 1.6 | 0.00 | 0.00 | 0.00 | 66 | 1018.4 |
| 20260502043900 | 16 | 147 | 0.0 | 1.6 | 0.00 | 0.00 | 0.00 | 67 | 1018.2 |
| 20260502043358 | 16 | 153 | 0.0 | 3.2 | 0.00 | 0.00 | 0.00 | 67 | 1018.4 |
| 20260502042857 | 15 | 133 | 1.6 | 9.7 | 0.00 | 0.00 | 0.00 | 66 | 1018.3 |
| 20260502042355 | 15 | 137 | 0.0 | 1.6 | 0.00 | 0.00 | 0.00 | 70 | 1018.1 |
| 20260502041852 | 15 | 147 | 0.0 | 1.6 | 0.00 | 0.00 | 0.00 | 71 | 1018.2 |
| 20260502041349 | 16 | 127 | 0.0 | 1.6 | 0.00 | 0.00 | 0.00 | 71 | 1018.1 |
| 20260502040847 | 15 | 125 | 3.2 | 3.2 | 0.00 | 0.00 | 0.00 | 71 | 1018.2 |
| 20260502040344 | 15 | 153 | 1.6 | 4.8 | 0.00 | 0.00 | 0.00 | 69 | 1018.1 |
| 20260502035839 | 15 | 145 | 1.6 | 1.6 | 0.00 | 0.00 | 0.00 | 72 | 1018.0 |
| 20260502035336 | 15 | 155 | 0.0 | 0.0 | 0.00 | 0.00 | 0.00 | 71 | 1017.8 |
| 20260502034834 | 15 | 168 | 1.6 | 4.8 | 0.00 | 0.00 | 0.00 | 71 | 1017.8 |
| 20260502034332 | 16 | 178 | 1.6 | 3.2 | 0.00 | 0.00 | 0.00 | 70 | 1017.8 |
| 20260502033830 | 16 | 170 | 0.0 | 1.6 | 0.00 | 0.00 | 0.00 | 70 | 1017.7 |
| 20260502033327 | 16 | 186 | 1.6 | 3.2 | 0.00 | 0.00 | 0.00 | 69 | 1017.6 |
| 20260502032824 | 16 | 149 | 0.0 | 1.6 | 0.00 | 0.00 | 0.00 | 69 | 1017.4 |
| 20260502032320 | 16 | 158 | 1.6 | 3.2 | 0.00 | 0.00 | 0.00 | 67 | 1017.4 |
| 20260502031818 | 16 | 158 | 0.0 | 0.0 | 0.00 | 0.00 | 0.00 | 67 | 1017.5 |
| 20260502031316 | 16 | 158 | 0.0 | 1.6 | 0.00 | 0.00 | 0.00 | 66 | 1017.5 |
| 20260502030814 | 17 | 165 | 0.0 | 1.6 | 0.00 | 0.00 | 0.00 | 65 | 1017.3 |
| 20260502030312 | 17 | 167 | 1.6 | 1.6 | 0.00 | 0.00 | 0.00 | 63 | 1017.2 |
| 20260502025809 | 17 | 165 | 0.0 | 1.6 | 0.00 | 0.00 | 0.00 | 62 | 1017.4 |
| 20260502025307 | 18 | 170 | 0.0 | 1.6 | 0.00 | 0.00 | 0.00 | 62 | 1017.3 |
| 20260502024804 | 18 | 171 | 1.6 | 3.2 | 0.00 | 0.00 | 0.00 | 58 | 1017.2 |
| 20260502024302 | 19 | 184 | 3.2 | 3.2 | 0.00 | 0.00 | 0.00 | 53 | 1017.1 |
| 20260502023800 | 19 | 159 | 0.0 | 1.6 | 0.00 | 0.00 | 0.00 | 55 | 1017.0 |
| 20260502023257 | 20 | 148 | 0.0 | 3.2 | 0.00 | 0.00 | 0.00 | 53 | 1017.2 |
| 20260502022755 | 20 | 172 | 1.6 | 3.2 | 0.00 | 0.00 | 0.00 | 50 | 1017.0 |
| 20260502022250 | 20 | 153 | 3.2 | 8.0 | 0.00 | 0.00 | 0.00 | 50 | 1016.8 |
| 20260502021748 | 20 | 153 | 1.6 | 3.2 | 0.00 | 0.00 | 0.00 | 48 | 1016.9 |
| 20260502021245 | 20 | 136 | 1.6 | 3.2 | 0.00 | 0.00 | 0.00 | 50 | 1017.0 |
| 20260502020742 | 20 | 159 | 1.6 | 4.8 | 0.00 | 0.00 | 0.00 | 49 | 1016.8 |
| 20260502020240 | 20 | 146 | 1.6 | 4.8 | 0.00 | 0.00 | 0.00 | 48 | 1016.9 |
| 20260502015737 | 20 | 159 | 4.8 | 8.0 | 0.00 | 0.00 | 0.00 | 47 | 1016.9 |
| 20260502015233 | 20 | 160 | 1.6 | 1.6 | 0.00 | 0.00 | 0.00 | 49 | 1016.9 |
| 20260502014731 | 20 | 184 | 1.6 | 4.8 | 0.00 | 0.00 | 0.00 | 47 | 1017.1 |
| 20260502014228 | 20 | 180 | 1.6 | 3.2 | 0.00 | 0.00 | 0.00 | 47 | 1017.1 |
| 20260502013724 | 20 | 158 | 4.8 | 8.0 | 0.00 | 0.00 | 0.00 | 47 | 1017.0 |
| 20260502013220 | 20 | 182 | 1.6 | 3.2 | 0.00 | 0.00 | 0.00 | 46 | 1017.2 |
| 20260502012717 | 21 | 143 | 1.6 | 11.3 | 0.00 | 0.00 | 0.00 | 46 | 1016.9 |
| 20260502012215 | 20 | 207 | 4.8 | 9.7 | 0.00 | 0.00 | 0.00 | 45 | 1016.8 |
| 20260502011711 | 21 | 117 | 4.8 | 8.0 | 0.00 | 0.00 | 0.00 | 45 | 1017.2 |
| 20260502011207 | 21 | 337 | 6.4 | 14.5 | 0.00 | 0.00 | 0.00 | 44 | 1017.0 |
| 20260502010705 | 21 | 66 | 4.8 | 11.3 | 0.00 | 0.00 | 0.00 | 44 | 1017.1 |
| 20260502010201 | 21 | 149 | 1.6 | 8.0 | 0.00 | 0.00 | 0.00 | 43 | 1017.3 |
| 20260502005658 | 21 | 204 | 3.2 | 3.2 | 0.00 | 0.00 | 0.00 | 43 | 1017.0 |
| 20260502005156 | 21 | 169 | 3.2 | 3.2 | 0.00 | 0.00 | 0.00 | 44 | 1017.2 |
| 20260502004652 | 21 | 159 | 3.2 | 3.2 | 0.00 | 0.00 | 0.00 | 45 | 1017.1 |
| 20260502004149 | 21 | 154 | 4.8 | 9.7 | 0.00 | 0.00 | 0.00 | 44 | 1017.2 |
| 20260502003647 | 22 | 359 | 11.3 | 12.9 | 0.00 | 0.00 | 0.00 | 42 | 1016.8 |
| 20260502003143 | 22 | 131 | 1.6 | 3.2 | 0.00 | 0.00 | 0.00 | 44 | 1017.1 |
| 20260502002639 | 22 | 104 | 3.2 | 8.0 | 0.00 | 0.00 | 0.00 | 43 | 1017.1 |
| 20260502002137 | 22 | 114 | 1.6 | 3.2 | 0.00 | 0.00 | 0.00 | 44 | 1017.3 |
| 20260502001635 | 22 | 99 | 8.0 | 11.3 | 0.00 | 0.00 | 0.00 | 43 | 1017.1 |
| 20260502001132 | 22 | 230 | 3.2 | 4.8 | 0.00 | 0.00 | 0.00 | 44 | 1017.2 |
| 20260502000630 | 22 | 135 | 1.6 | 4.8 | 0.00 | 0.00 | 0.00 | 44 | 1017.0 |
| 20260502000127 | 22 | 251 | 6.4 | 8.0 | 0.00 | 0.00 | 0.00 | 44 | 1017.1 |
| 20260501235623 | 22 | 332 | 6.4 | 9.7 | 0.00 | 0.00 | 0.00 | 43 | 1017.0 |
| 20260501235119 | 22 | 148 | 1.6 | 3.2 | 0.00 | 0.00 | 0.00 | 45 | 1017.1 |
| 20260501234615 | 22 | 84 | 0.0 | 3.2 | 0.00 | 0.00 | 0.00 | 44 | 1016.9 |
| 20260501234112 | 22 | 170 | 0.0 | 3.2 | 0.00 | 0.00 | 0.00 | 46 | 1016.8 |
| 20260501233610 | 21 | 146 | 1.6 | 4.8 | 0.00 | 0.00 | 0.00 | 51 | 1017.1 |
| 20260501233108 | 20 | 139 | 1.6 | 3.2 | 0.00 | 0.00 | 0.00 | 58 | 1017.1 |
| 20260501232603 | 20 | 174 | 4.8 | 8.0 | 0.00 | 0.00 | 0.00 | 59 | 1017.2 |
| 20260501232101 | 20 | 200 | 6.4 | 8.0 | 0.00 | 0.00 | 0.00 | 59 | 1017.1 |
| 20260501231558 | 20 | 167 | 1.6 | 4.8 | 0.00 | 0.00 | 0.00 | 60 | 1017.3 |
| 20260501231056 | 20 | 198 | 3.2 | 4.8 | 0.00 | 0.00 | 0.00 | 60 | 1017.3 |
| 20260501230555 | 20 | 172 | 3.2 | 4.8 | 0.00 | 0.00 | 0.00 | 59 | 1017.5 |
| 20260501230052 | 20 | 184 | 3.2 | 8.0 | 0.00 | 0.00 | 0.00 | 59 | 1017.4 |
| 20260501225549 | 18 | 150 | 0.0 | 1.6 | 0.00 | 0.00 | 0.00 | 62 | 1017.3 |
| 20260501225046 | 18 | 182 | 4.8 | 4.8 | 0.00 | 0.00 | 0.00 | 62 | 1017.6 |
| 20260501224544 | 18 | 168 | 0.0 | 4.8 | 0.00 | 0.00 | 0.00 | 62 | 1017.5 |
| 20260501224040 | 19 | 241 | 8.0 | 11.3 | 0.00 | 0.00 | 0.00 | 61 | 1017.7 |
| 20260501223537 | 18 | 187 | 6.4 | 9.7 | 0.00 | 0.00 | 0.00 | 62 | 1017.8 |
| 20260501223033 | 18 | 173 | 3.2 | 8.0 | 0.00 | 0.00 | 0.00 | 61 | 1017.7 |
| 20260501222529 | 18 | 207 | 3.2 | 4.8 | 0.00 | 0.00 | 0.00 | 61 | 1017.9 |
| 20260501222026 | 19 | 185 | 4.8 | 8.0 | 0.00 | 0.00 | 0.00 | 60 | 1017.9 |
| 20260501221523 | 20 | 178 | 3.2 | 8.0 | 0.00 | 0.00 | 0.00 | 59 | 1017.8 |
| 20260501221021 | 20 | 156 | 0.0 | 4.8 | 0.00 | 0.00 | 0.00 | 58 | 1018.0 |
| 20260501220518 | 20 | 160 | 1.6 | 9.7 | 0.00 | 0.00 | 0.00 | 58 | 1017.9 |
| 20260501220015 | 20 | 203 | 6.4 | 8.0 | 0.00 | 0.00 | 0.00 | 55 | 1018.1 |
| 20260501215511 | 22 | 219 | 4.8 | 8.0 | 0.00 | 0.00 | 0.00 | 51 | 1018.3 |
| 20260501215006 | 22 | 213 | 4.8 | 8.0 | 0.00 | 0.00 | 0.00 | 42 | 1018.1 |
| 20260501214502 | 22 | 132 | 3.2 | 8.0 | 0.00 | 0.00 | 0.00 | 41 | 1018.0 |
| 20260501213958 | 22 | 127 | 4.8 | 8.0 | 0.00 | 0.00 | 0.00 | 41 | 1018.0 |
| 20260501213455 | 22 | 71 | 3.2 | 9.7 | 0.00 | 0.00 | 0.00 | 44 | 1017.9 |
| 20260501212950 | 22 | 154 | 0.0 | 8.0 | 0.00 | 0.00 | 0.00 | 42 | 1018.0 |
| 20260501212447 | 23 | 235 | 11.3 | 11.3 | 0.00 | 0.00 | 0.00 | 43 | 1018.3 |
| 20260501211944 | 22 | 170 | 1.6 | 4.8 | 0.00 | 0.00 | 0.00 | 46 | 1018.2 |
| 20260501211441 | 22 | 346 | 6.4 | 11.3 | 0.00 | 0.00 | 0.00 | 45 | 1018.0 |
| 20260501210939 | 21 | 106 | 6.4 | 12.9 | 0.00 | 0.00 | 0.00 | 47 | 1018.0 |